Crescent City, CA

8:26 PM PST on January 19, 2018 (GMT -0800)
McNamara

Weather History for KCEC - March, 2012

Change the Weather History Date:

Saturday, March 31, 2012

  Actual Average Record
Temperature  
Mean Temperature 49 °F 49 °F  
Max Temperature 56 °F 55 °F 75 °F (1986)
Min Temperature 42 °F 43 °F 32 °F (1979)
Degree Days  
Heating Degree Days 16 16  
Month to date heating degree days 586 510  
Since 1 July heating degree days 3629 3686  
Cooling Degree Days 0 0  
Month to date cooling degree days 0 0  
Year to date cooling degree days 0 0  
Moisture  
Dew Point 44 °F    
Average Humidity 82    
Maximum Humidity 96    
Minimum Humidity 68    
Precipitation  
Precipitation 0.95 in 0.29 in 2.62 in (1958)
Month to date precipitation 17.38 7.86  
Year to date precipitation 32.31 27.13  
Since 1 July precipitation 49.94  
Snow  
Snow 0.00 in - - ()
Month to date snowfall T  
Since 1 July snowfall T  
Snow Depth 0.00 in    
Sea Level Pressure  
Sea Level Pressure 29.56 in    
Wind  
Wind Speed 32 mph (South)    
Max Wind Speed 46 mph    
Max Gust Speed 66 mph    
Visibility 7 miles    
Events Rain    
T = Trace of Precipitation, MM = Missing Value Source: NWS Daily Summary

Daily Weather History Graph

Daily Weather History Graph

Search for Another Location

Airport or City:

Trip Planner

Search our weather history database for the weather conditions in past years. The results will help you decide how hot, cold, wet, or windy it might be!

Date:

Astronomy

Mar. 31, 2012 Rise Set
Actual Time 7:00 AM PDT 7:41 PM PDT
Civil Twilight 6:32 AM PDT 8:10 PM PDT
Nautical Twilight 5:59 AM PDT 8:43 PM PDT
Astronomical Twilight 5:24 AM PDT 9:17 PM PDT
Moon 1:10 PM PDT (3/31) 3:06 AM PDT (3/31)
Length of Visible Light 13h 37m
Length of Day
12h 41m
First Quarter, 60% of the Moon is Illuminated
Mar 31
First Quarter
Apr 6
Full
Apr 13
Last Quarter
Apr 21
New
Apr 29
First Quarter

Hourly Weather History & Observations

Time (PDT) Temp. Windchill Dew Point Humidity Pressure Visibility Wind Dir Wind Speed Gust Speed Precip Events Conditions
12:56 AM 55.0 °F - 48.9 °F 80% 29.49 in 10.0 mi SSE 25.3 mph 34.5 mph 0.00 in Rain Light Rain
1:56 AM 55.9 °F - 46.9 °F 72% 29.44 in 10.0 mi SSE 25.3 mph 35.7 mph 0.00 in   Overcast
2:56 AM 54.0 °F - 48.0 °F 80% 29.44 in 5.0 mi South 26.5 mph 35.7 mph 0.06 in Rain Heavy Rain
3:56 AM 51.8 °F - 50.0 °F 94% 29.43 in 5.0 mi South 31.1 mph 39.1 mph N/A Rain Rain
4:28 AM 48.2 °F - 46.4 °F 93% 29.48 in 6.0 mi SSW 24.2 mph 34.5 mph 0.07 in Rain Rain
4:38 AM 48.2 °F - 46.4 °F 93% 29.48 in 6.0 mi SSW 25.3 mph 33.4 mph 0.10 in Rain Rain
4:56 AM 48.0 °F - 45.0 °F 89% 29.51 in 5.0 mi SSW 29.9 mph 40.3 mph 0.13 in Rain Rain
5:56 AM 45.0 °F 36.4 °F 42.1 °F 90% 29.55 in 5.0 mi South 23.0 mph 29.9 mph 0.16 in Rain Rain
6:10 AM 44.6 °F 35.1 °F 41.0 °F 87% 29.54 in 5.0 mi SSE 27.6 mph 36.8 mph 0.04 in Rain Rain
6:56 AM 46.9 °F - 44.1 °F 90% 29.53 in 5.0 mi SSE 21.9 mph 31.1 mph 0.19 in Rain Rain
7:15 AM 46.4 °F 37.7 °F 42.8 °F 87% 29.54 in 7.0 mi SSE 26.5 mph 42.6 mph 0.03 in Rain Light Rain
7:56 AM 45.0 °F 35.4 °F 41.0 °F 86% 29.54 in 8.0 mi SE 28.8 mph 38.0 mph 0.05 in Rain Light Rain
8:56 AM 46.0 °F 37.4 °F 39.0 °F 76% 29.52 in 10.0 mi SE 25.3 mph 39.1 mph 0.01 in   Overcast
9:56 AM 48.9 °F - 39.9 °F 71% 29.50 in 10.0 mi SE 27.6 mph 35.7 mph 0.00 in   Mostly Cloudy
10:56 AM 51.1 °F - 41.0 °F 68% 29.49 in 10.0 mi SSE 28.8 mph 48.3 mph 0.00 in   Overcast
11:56 AM 50.0 °F - 42.1 °F 74% 29.48 in 10.0 mi SSE 24.2 mph 48.3 mph 0.00 in Rain Light Rain
12:56 PM 53.6 °F - 44.6 °F 72% 29.47 in 10.0 mi SSE 35.7 mph 44.9 mph N/A   Mostly Cloudy
1:56 PM 53.1 °F - 44.1 °F 71% 29.47 in 10.0 mi South 42.6 mph 51.8 mph 0.00 in   Overcast
2:56 PM 51.1 °F - 42.1 °F 71% 29.46 in 8.0 mi South 39.1 mph 52.9 mph N/A   Overcast
3:27 PM 48.2 °F - 44.6 °F 87% 29.47 in 1.8 mi South 44.9 mph 65.6 mph 0.04 in   Overcast
3:37 PM 48.2 °F - 44.6 °F 87% 29.47 in 2.5 mi South 42.6 mph 55.2 mph 0.07 in   Haze
3:44 PM 48.2 °F - 44.6 °F 87% 29.47 in 4.0 mi South 47.2 mph 57.5 mph 0.07 in   Haze
3:56 PM 48.9 °F - 45.0 °F 86% 29.49 in 5.0 mi South 46.0 mph 54.1 mph 0.08 in   Overcast
4:03 PM 48.2 °F - 44.6 °F 87% 29.49 in 7.0 mi South 44.9 mph 56.4 mph N/A   Overcast
4:56 PM 48.9 °F - 44.1 °F 83% 29.52 in 8.0 mi SSE 34.5 mph 48.3 mph N/A   Overcast
5:56 PM 48.9 °F - 43.0 °F 80% 29.54 in 9.0 mi South 35.7 mph 49.5 mph N/A   Overcast
6:56 PM 48.0 °F - 44.1 °F 86% 29.58 in 4.0 mi South 28.8 mph 44.9 mph 0.03 in Rain Rain
7:56 PM 46.9 °F - 44.1 °F 90% 29.67 in 8.0 mi SW 18.4 mph 28.8 mph 0.06 in   Overcast
8:05 PM 48.2 °F - 44.6 °F 87% 29.68 in 9.0 mi WSW 18.4 mph 27.6 mph N/A   Overcast
8:56 PM 46.9 °F - 44.1 °F 90% 29.76 in 6.0 mi West 25.3 mph 34.5 mph 0.01 in Rain Light Rain
9:54 PM 46.4 °F 36.9 °F 39.2 °F 76% 29.85 in 9.0 mi WNW 32.2 mph 40.3 mph 0.01 in   Overcast
9:56 PM 46.4 °F 36.9 °F 39.2 °F 76% 29.85 in 9.0 mi WNW 32.2 mph 39.1 mph N/A   Overcast
10:56 PM 45.0 °F 35.8 °F 39.0 °F 80% 29.93 in 9.0 mi NW 26.5 mph 39.1 mph 0.00 in Rain Light Rain
11:56 PM 46.0 °F 38.3 °F 39.0 °F 76% 30.00 in 10.0 mi WNW 20.7 mph 31.1 mph 0.00 in   Overcast